Regional Weather Roundup
Issued by NWS Jackson, KY

Home | Current Version | Previous Version | Text Only | Print | Product List | Glossary On
Versions: 1 2 3 4 5 6 7 8 9 10 11 12 13 14 15 16 17 18 19 20 21 22 23 24 25 26 27 28 29 30 31 32 33 34 35 36 37 38 39 40 41 42 43 44 45 46 47 48 49 50
000
ASUS43 KJKL 211219
RWRJKL

EAST KENTUCKY HOURLY WEATHER ROUNDUP
NATIONAL WEATHER SERVICE JACKSON KY
800 AM EDT MON APR 21 2014

NOTE: "FAIR" INDICATES FEW OR NO CLOUDS BELOW 12,000 FEET WITH
NO SIGNIFICANT WEATHER AND/OR OBSTRUCTIONS TO VISIBILITY.

* THESE REPORTS ARE NOT UNDER NWS QUALITY CONTROL AND MAY NOT
  REPORT WEATHER SUCH AS PRECIPITATION AND FOG.

KYZ079-080-083-085-087-088-110-112-115-119-120-211300
...EASTERN KENTUCKY...

CITY           SKY/WX    TMP DP  RH WIND       PRES   REMARKS
JACKSON        SUNNY     56  36  47 S3        30.12R
6HR MIN TEMP:  54; 6HR MAX TEMP:  64;

LONDON         MOSUNNY   51  45  79 CALM      30.13R
6HR MIN TEMP:  47; 6HR MAX TEMP:  53;

SOMERSET*      PTSUNNY   46  43  87 CALM      30.14R
MONTICELLO*    CLOUDY    49  45  86 CALM      30.14S
6HR MIN TEMP:  42; 6HR MAX TEMP:  49;

WILLIAMSBURG*  SUNNY     52  45  76 CALM      30.14R
MIDDLESBORO*   SUNNY     45  42  88 CALM      30.17S
6HR MIN TEMP:  42; 6HR MAX TEMP:  49;

HARLAN APT*    SUNNY     46  39  76 CALM      30.16S
BLACK MTN*       N/A     54  32  43 SW5         N/A
PIKEVILLE APT* SUNNY     55  32  41 S3        30.12S
BIG SANDY*     SUNNY     57  34  41 CALM      30.12R
6HR MIN TEMP:  52; 6HR MAX TEMP:  62;

ASHLAND*       SUNNY     46  41  81 CALM      30.09
MOREHEAD APT*  SUNNY     54  45  71 SE1       30.13R
$$

KYZ035-036-041-042-044-050-067-078-099-211300
...CENTRAL KENTUCKY...

CITY           SKY/WX    TMP DP  RH WIND       PRES   REMARKS
MT STERLING*   MOSUNNY   54  45  71 SW5       30.12R
FLEMING/MASON* SUNNY     54  45  71 S3        30.10S
DANVILLE*      CLOUDY    50  43  76 S5        30.12R
LEXINGTON      PTSUNNY   57  45  64 S7        30.09S
6HR MIN TEMP:  50; 6HR MAX TEMP:  57;

FRANKFORT      CLOUDY    49  45  86 CALM      30.08R
6HR MIN TEMP:  45; 6HR MAX TEMP:  50;

$$

KYZ091>093-OHZ055-061-077-WVZ005-015-034-035-042-211300
...SOUTHERN OHIO/WEST VIRGINIA...

CITY           SKY/WX    TMP DP  RH WIND       PRES   REMARKS
COVINGTON      PTSUNNY   51  45  79 CALM      30.07S
COLUMBUS       PTSUNNY   52  39  61 CALM      30.07F
DAYTON         PTSUNNY   57  44  62 CALM      30.07S
WILMINGTON     SUNNY     53  44  71 S3        30.08R
HUNTINGTON     SUNNY     47  39  74 E3        30.09S
CHARLESTON     SUNNY     48  38  68 CALM      30.11S
PINEVILLE*     SUNNY     41  37  84 MISG      30.21S
BECKLEY        SUNNY     50  30  46 SE7       30.16S
BLUEFIELD      SUNNY     50  30  46 CALM      30.18S
$$

VAZ002-007-008-TNZ017-027-036-066-071-211300
...SOUTHWEST VIRGINIA/EAST TENNESSEE...

CITY           SKY/WX    TMP DP  RH WIND       PRES   REMARKS
WISE*          SUNNY     52  30  43 S5        30.18S
ABINGDON*      MOSUNNY   49  32  51 E5        30.18S
BRISTOL        MOSUNNY   44  35  70 CALM      30.19R
KNOXVILLE      MOSUNNY   50  43  77 CALM      30.17R
OAK RIDGE      MOSUNNY   54  45  71 CALM      30.18R
CROSSVILLE     MOSUNNY   55  38  52 VRB3      30.17R
NASHVILLE      MOCLDY    51  48  89 SE3       30.12R
$$

...KEY TO REMARKS...
VSB - VISIBILITY IN MILES
WCI - WIND CHILL INDEX
HX  - HEAT INDEX

$$



USA.gov is the U.S. government's official web portal to all federal, state and local government web resources and services.